Wind_Speed
26 23 25 23 20 15 8 11 10 4 1 4 6 6 8 9 17 22 21 21 23 22 21 21 20 19 22 21 16 18 16 15 13 14 16 18 15 14 11 12 13 15 13 14
25 32 27 22 22 19 12 12 12 5 3 1 5 8 9 12 17 24 22 23 23 23 24 24 24 22 21 21 19 15 17 18 13 15 17 19 17 16 15 14 13 14 15 14
35 32 27 25 24 23 21 16 13 9 4 8 7 12 9 14 16 22 24 24 23 25 26 27 27 25 22 22 20 18 16 16 17 14 16 17 18 16 15 15 15 15 16 15
33 28 31 30 29 25 25 20 14 12 9 9 2 2 11 11 16 22 27 26 26 27 27 28 29 28 26 22 20 19 17 16 15 18 18 19 19 18 16 14 15 15 13 13
36 32 32 34 32 27 26 17 18 16 16 14 13 10 7 10 16 21 26 27 27 28 30 31 30 28 26 26 23 20 19 18 17 17 20 20 20 20 18 17 15 15 14 14
34 29 30 32 32 29 25 15 16 16 18 20 19 11 10 12 14 16 23 27 26 28 29 29 30 30 28 26 25 24 21 19 18 17 20 21 21 21 20 17 15 15 16 15
34 34 29 26 33 31 31 26 19 16 16 15 12 11 20 4 4 11 21 23 26 26 30 30 31 32 31 30 29 28 25 23 21 20 18 21 21 20 18 16 16 15 15 15
33 39 33 29 36 33 36 35 27 18 13 18 18 10 11 5 8 10 14 19 24 24 27 30 32 33 33 32 31 29 27 25 23 21 20 20 23 22 22 20 18 16 14 14
33 34 36 27 31 35 33 40 35 30 24 20 20 20 18 9 6 12 12 17 23 26 26 27 32 32 35 35 33 30 27 25 23 21 20 21 22 25 25 24 20 17 15 12
18 23 25 34 25 29 32 32 33 35 23 19 23 22 13 13 9 6 7 11 21 25 29 27 26 32 34 33 32 30 27 25 23 22 21 21 20 21 23 25 23 20 16 13
18 19 25 25 35 36 30 25 35 31 34 18 16 26 20 18 11 6 5 8 15 23 25 28 29 27 32 32 32 31 29 27 26 24 22 21 22 23 25 25 25 23 20 17
24 20 23 24 27 28 37 36 32 30 32 35 26 25 13 14 8 10 6 9 12 24 19 23 27 30 31 34 33 31 30 29 27 24 23 23 23 23 24 25 25 26 24 22
12 23 22 25 18 22 33 36 39 35 30 31 24 30 13 9 12 8 8 9 13 31 30 26 25 28 28 30 32 30 28 26 25 24 23 25 26 24 24 25 26 27 28 27
12 21 27 25 28 24 26 34 37 38 37 33 35 32 27 14 9 13 11 10 11 29 34 30 26 25 27 29 28 28 29 27 26 25 25 25 25 25 26 26 28 28 28 29
5 15 21 29 19 20 25 29 36 37 39 36 30 32 30 24 17 14 24 13 8 22 28 30 30 29 28 28 30 32 32 31 30 29 29 26 26 25 27 29 29 30 31 30
6 8 11 19 25 21 22 27 25 36 36 34 31 25 16 22 26 28 18 24 12 18 29 27 28 32 33 34 32 31 30 31 30 29 29 30 30 29 28 28 30 32 32 32
8 7 8 19 20 23 28 26 27 23 25 31 35 32 25 23 28 28 30 23 16 15 23 27 26 28 27 32 39 38 33 34 34 31 31 30 28 25 23 26 30 31 33 33
16 8 10 14 12 17 14 17 19 21 18 17 17 24 26 27 26 27 34 30 25 23 22 22 24 25 25 25 28 39 41 39 37 35 33 31 31 28 21 18 22 30 32 31
21 12 10 16 19 7 7 11 13 19 13 18 16 32 34 32 31 29 31 32 29 28 27 27 27 26 25 26 29 33 35 37 37 36 40 37 39 33 29 28 27 26 27 30
23 19 13 17 17 13 14 15 21 21 11 13 14 18 28 25 20 27 30 31 29 28 29 29 27 25 25 23 27 28 36 41 40 33 47 45 52 34 29 29 30 27 26 27
18 18 21 21 19 6 14 15 16 11 9 16 13 12 10 14 21 23 23 27 26 27 26 25 23 22 20 19 22 25 22 31 24 23 25 29 28 29 34 28 30 26 22 26
15 17 19 22 19 12 15 12 11 12 15 12 12 13 13 13 10 12 13 15 17 19 23 26 28 27 26 25 25 23 24 23 20 16 18 24 26 30 19 34 27 30 31 30
8 12 9 19 14 15 15 19 18 17 15 15 14 13 15 15 15 14 13 13 10 14 18 18 21 29 29 28 28 27 26 27 28 28 26 25 26 25 25 24 28 31 32 34
14 10 7 9 18 20 14 18 17 19 15 12 11 7 8 11 14 14 13 13 10 9 10 12 16 20 23 24 27 30 32 31 29 31 31 33 34 33 29 27 30 36 37 36
10 7 9 14 14 17 15 17 20 21 20 12 7 3 7 10 11 11 10 9 8 9 9 12 12 13 14 17 20 22 23 25 22 24 25 26 27 32 30 31 35 35 31 31
11 11 10 9 11 14 17 18 20 16 13 13 5 7 6 4 3 4 7 10 12 12 13 13 14 17 18 18 18 20 24 25 24 28 28 24 26 31 25 25 26 27 27 26
Wind_Direction
211 209 210 211 215 218 218 218 196 198 27 201 237 240 237 229 190 192 195 205 199 188 187 184 179 178 165 169 175 176 177 175 181 174 173 172 174 173 176 179 174 170 168 165
212 216 213 213 215 221 222 213 206 220 256 253 258 267 248 219 207 202 203 205 205 193 191 189 187 184 177 169 171 173 177 179 172 177 175 177 177 182 180 178 176 177 176 173
213 218 211 214 218 220 223 222 221 244 238 273 280 265 220 214 213 207 200 204 203 198 195 194 193 188 183 176 172 171 171 178 180 188 177 177 176 178 176 169 168 171 171 172
217 216 217 218 217 215 221 224 233 233 247 260 240 290 195 201 210 217 208 204 203 207 200 202 198 194 191 182 177 175 178 187 184 186 186 176 184 178 178 183 181 180 175 176
216 213 213 216 215 215 224 227 230 241 244 259 242 254 226 198 212 215 203 198 202 204 207 205 204 199 198 191 187 186 184 187 187 190 190 190 188 185 189 191 196 194 191 188
218 216 215 217 216 216 216 228 228 231 240 248 245 242 256 218 230 220 209 207 203 204 207 207 209 204 201 201 196 192 195 191 192 192 200 194 190 188 196 199 204 200 203 199
214 216 219 216 216 216 215 214 216 218 218 234 223 240 243 239 226 208 209 210 208 204 204 208 210 209 203 202 201 197 196 198 197 194 199 207 204 202 198 204 206 198 198 197
210 210 211 210 211 208 212 216 222 221 226 227 211 241 241 223 214 203 193 205 208 211 208 209 209 210 210 206 206 204 198 199 201 199 196 202 206 208 206 204 208 207 210 204
215 220 214 212 208 211 211 219 224 239 245 252 219 236 240 220 238 209 210 205 205 207 207 208 212 213 210 211 211 207 203 200 204 199 198 201 207 213 213 209 207 214 214 223
221 226 207 211 206 217 218 219 220 228 236 229 238 238 234 198 192 178 197 219 214 212 208 206 206 211 211 213 215 210 207 205 203 203 205 207 207 211 215 215 213 213 220 220
213 219 213 210 212 212 210 218 220 223 227 233 232 234 225 221 232 242 275 233 222 209 204 205 207 210 211 211 215 213 209 208 205 204 204 209 210 211 213 217 218 217 219 226
223 230 225 214 223 219 221 218 217 220 219 228 247 231 198 198 222 245 283 258 219 199 192 201 204 208 206 207 212 215 213 210 208 208 205 208 213 214 219 221 222 223 223 224
207 220 228 230 213 219 219 218 219 223 229 221 224 230 194 188 212 252 293 284 224 191 190 199 202 205 209 209 211 211 211 212 211 210 211 214 215 216 221 225 223 224 229 232
221 216 229 223 225 220 219 218 217 220 223 226 222 231 229 223 248 259 263 300 228 194 196 197 197 201 209 212 214 215 214 211 216 215 217 219 221 220 221 226 229 229 232 234
228 232 232 234 243 229 215 217 218 222 224 226 228 227 228 233 241 236 225 269 262 203 192 200 205 203 202 205 206 210 213 215 217 221 221 225 223 221 223 225 228 228 232 237
276 240 244 236 226 227 231 220 220 223 225 229 233 232 224 227 236 239 239 238 264 226 202 198 200 200 205 207 208 208 210 213 216 218 223 226 227 226 228 230 231 232 234 234
268 255 250 235 213 222 230 219 219 219 220 226 232 231 238 236 241 241 246 244 245 245 214 210 209 211 214 215 211 206 206 219 218 218 216 217 217 220 224 236 241 244 240 239
232 265 244 249 202 218 205 198 206 215 209 213 225 213 222 239 244 246 251 253 246 241 238 228 221 215 217 219 217 217 216 218 215 217 220 217 211 206 207 219 236 234 238 242
231 231 242 234 216 156 159 162 175 185 203 218 207 222 230 235 238 236 239 247 242 242 242 237 228 226 222 222 220 213 212 215 218 224 225 222 218 224 224 232 237 231 234 239
215 216 224 218 252 208 159 212 207 195 193 211 216 229 234 238 244 237 233 237 242 238 242 240 234 227 228 227 215 217 219 221 224 234 233 233 226 229 220 235 244 231 243 256
190 201 216 224 233 188 203 205 200 203 197 217 224 235 239 240 242 243 247 246 243 240 234 236 234 232 236 234 232 219 219 221 223 241 259 250 253 227 224 236 226 239 247 252
202 202 207 226 229 228 225 208 185 201 218 222 227 239 249 251 241 257 253 258 256 246 235 228 229 229 227 224 226 219 234 236 230 219 218 222 234 247 244 240 239 247 247 251
217 208 206 203 218 235 225 223 202 211 217 227 229 226 229 239 246 245 260 267 246 247 254 248 243 239 239 243 242 238 231 225 226 224 218 231 215 225 231 233 240 249 248 242
232 216 211 191 219 219 228 214 215 218 207 224 236 232 231 231 238 237 240 255 253 245 239 246 252 251 255 257 261 262 260 253 246 237 233 229 231 234 230 228 237 252 250 251
199 185 190 211 219 211 209 211 212 216 228 212 215 209 204 235 240 237 226 227 227 231 237 233 227 225 232 244 248 247 249 240 224 225 225 220 233 234 238 239 242 246 241 242
210 192 174 218 206 195 195 206 198 187 209 200 185 170 170 191 232 212 201 206 211 221 221 231 237 233 228 225 219 218 226 225 216 213 224 219 218 226 232 238 243 245 251 245
Height
3164 3169 3168 3171 3173 3173 3175 3175 3177 3179 3178 3179 3180 3181 3181 3178 3180 3183 3186 3188 3191 3194 3197 3199 3201 3205 3205 3208 3212 3215 3217 3220 3223 3224 3226 3229 3233 3234 3236 3237 3239 3240 3242 3243
3163 3161 3166 3170 3171 3173 3175 3175 3176 3177 3177 3178 3179 3179 3179 3177 3177 3182 3185 3187 3189 3193 3195 3197 3200 3203 3206 3208 3210 3214 3217 3219 3223 3224 3226 3229 3232 3235 3235 3237 3239 3241 3243 3244
3154 3158 3164 3167 3168 3170 3171 3173 3173 3176 3176 3176 3176 3173 3175 3175 3176 3177 3182 3185 3187 3190 3193 3194 3198 3201 3205 3207 3210 3213 3217 3220 3222 3224 3226 3229 3231 3234 3237 3238 3240 3242 3243 3245
3151 3156 3158 3162 3164 3168 3167 3171 3173 3174 3175 3172 3174 3167 3169 3172 3172 3172 3176 3180 3184 3187 3190 3192 3195 3198 3202 3205 3209 3211 3214 3218 3221 3224 3227 3228 3232 3234 3237 3239 3240 3242 3243 3245
3142 3148 3152 3155 3159 3164 3166 3168 3171 3172 3172 3172 3170 3172 3165 3168 3169 3169 3170 3174 3179 3183 3185 3188 3192 3196 3200 3203 3205 3210 3213 3216 3219 3223 3227 3229 3232 3234 3237 3239 3241 3243 3244 3245
3140 3145 3148 3151 3156 3160 3165 3166 3168 3170 3169 3165 3165 3167 3160 3162 3165 3168 3169 3171 3175 3179 3182 3186 3190 3193 3197 3200 3204 3206 3210 3213 3217 3221 3225 3228 3230 3232 3236 3238 3241 3242 3244 3245
3135 3136 3142 3146 3151 3155 3159 3162 3162 3163 3159 3160 3159 3164 3161 3162 3163 3164 3165 3167 3170 3174 3178 3182 3185 3189 3193 3196 3200 3203 3207 3211 3214 3217 3221 3226 3229 3231 3233 3237 3239 3240 3243 3244
3127 3128 3133 3137 3141 3147 3151 3154 3151 3152 3148 3151 3154 3157 3158 3159 3159 3162 3164 3166 3169 3170 3174 3177 3181 3185 3190 3193 3197 3201 3204 3208 3212 3215 3218 3223 3227 3229 3231 3234 3238 3239 3240 3242
3120 3123 3129 3133 3138 3142 3145 3145 3151 3150 3147 3147 3146 3153 3156 3157 3159 3160 3162 3164 3164 3166 3169 3172 3177 3181 3186 3189 3194 3198 3202 3206 3210 3213 3216 3219 3222 3226 3229 3231 3234 3237 3238 3240
3116 3119 3122 3129 3134 3136 3137 3145 3146 3144 3141 3143 3144 3146 3150 3153 3157 3158 3159 3160 3161 3163 3166 3170 3173 3177 3181 3185 3191 3195 3199 3203 3207 3210 3213 3216 3219 3222 3226 3228 3230 3233 3236 3236
3117 3119 3119 3124 3123 3127 3133 3134 3137 3142 3142 3139 3142 3142 3147 3152 3154 3155 3156 3156 3157 3159 3162 3166 3171 3174 3178 3183 3187 3191 3195 3199 3202 3206 3209 3213 3216 3218 3220 3224 3227 3229 3231 3234
3116 3115 3114 3116 3121 3124 3127 3129 3132 3132 3135 3138 3138 3140 3141 3146 3149 3150 3151 3151 3152 3156 3160 3164 3167 3171 3174 3178 3183 3187 3190 3194 3198 3202 3205 3208 3212 3214 3217 3220 3224 3227 3228 3230
3111 3111 3110 3113 3116 3118 3117 3121 3126 3130 3133 3130 3136 3137 3140 3142 3145 3146 3147 3147 3148 3152 3156 3162 3165 3169 3172 3176 3180 3184 3187 3191 3195 3198 3202 3204 3207 3210 3213 3216 3219 3222 3224 3226
3105 3106 3105 3102 3106 3111 3115 3117 3120 3123 3124 3127 3129 3136 3137 3141 3144 3143 3144 3146 3146 3148 3153 3158 3163 3167 3171 3175 3179 3182 3185 3188 3191 3194 3197 3200 3203 3206 3209 3212 3215 3217 3219 3221
3104 3103 3104 3102 3102 3103 3106 3110 3114 3116 3119 3121 3127 3129 3134 3139 3139 3139 3142 3145 3146 3147 3150 3154 3159 3163 3166 3169 3173 3176 3180 3183 3186 3189 3191 3195 3199 3201 3203 3206 3209 3212 3214 3217
3101 3101 3100 3099 3100 3102 3102 3105 3108 3112 3116 3120 3123 3125 3132 3129 3131 3136 3138 3140 3142 3143 3146 3148 3152 3156 3160 3164 3168 3172 3175 3178 3181 3183 3186 3189 3193 3196 3199 3201 3204 3206 3208 3210
3098 3099 3098 3093 3095 3098 3099 3099 3103 3107 3111 3116 3119 3124 3126 3122 3125 3131 3133 3136 3139 3140 3142 3145 3148 3152 3155 3158 3161 3165 3168 3172 3175 3177 3180 3183 3187 3190 3192 3196 3199 3201 3203 3205
3093 3095 3096 3091 3092 3091 3091 3094 3100 3104 3107 3111 3113 3113 3114 3117 3122 3126 3127 3131 3134 3139 3139 3142 3144 3147 3149 3152 3155 3158 3162 3165 3168 3171 3174 3177 3179 3182 3185 3186 3190 3191 3195 3197
3090 3093 3094 3090 3088 3089 3091 3093 3098 3101 3104 3103 3106 3109 3110 3113 3116 3119 3121 3123 3128 3131 3133 3136 3139 3141 3144 3146 3149 3151 3154 3157 3161 3164 3168 3169 3171 3174 3178 3180 3181 3183 3186 3189
3083 3088 3092 3088 3082 3080 3083 3088 3091 3095 3101 3100 3102 3103 3105 3108 3111 3113 3116 3118 3121 3125 3127 3129 3132 3135 3138 3140 3143 3145 3146 3148 3152 3155 3157 3150 3156 3167 3171 3175 3176 3178 3180 3184
3079 3083 3086 3086 3082 3081 3082 3085 3089 3096 3099 3096 3099 3101 3102 3104 3107 3108 3109 3112 3115 3117 3122 3125 3128 3132 3135 3140 3141 3142 3144 3145 3147 3150 3150 3148 3151 3152 3164 3168 3170 3174 3177 3177
3076 3079 3080 3083 3080 3080 3081 3084 3090 3091 3091 3094 3096 3098 3100 3101 3103 3104 3107 3109 3111 3113 3116 3120 3123 3127 3131 3135 3138 3138 3141 3141 3143 3146 3147 3149 3153 3145 3139 3158 3156 3166 3169 3170
3076 3074 3075 3079 3078 3078 3079 3081 3084 3087 3089 3090 3093 3095 3097 3098 3100 3103 3104 3106 3108 3110 3113 3115 3119 3122 3125 3128 3132 3132 3135 3137 3139 3142 3146 3148 3148 3151 3152 3154 3157 3160 3162 3164
3070 3070 3071 3075 3075 3077 3078 3080 3082 3085 3088 3089 3091 3094 3095 3097 3098 3100 3102 3104 3106 3108 3110 3112 3115 3117 3120 3124 3125 3127 3130 3132 3135 3137 3139 3141 3143 3146 3148 3149 3152 3152 3154 3157
3070 3070 3071 3071 3072 3074 3076 3080 3082 3083 3085 3089 3092 3093 3096 3097 3098 3099 3101 3102 3104 3106 3109 3111 3113 3115 3116 3118 3120 3122 3124 3125 3127 3131 3134 3134 3137 3139 3140 3142 3145 3146 3147 3148
3068 3068 3071 3071 3072 3072 3077 3080 3081 3083 3086 3089 3091 3094 3096 3097 3099 3099 3100 3102 3103 3104 3106 3108 3110 3112 3114 3116 3117 3119 3120 3123 3123 3123 3128 3128 3129 3132 3132 3134 3137 3138 3139 3138